11P/Tempel-Swift-LINEAR (2020)

Japanese version
Home page
Updated on July 2, 2021

---------------------------------------------------------------------

* Profile

* Pictures

* Orbital Elements

Epoch 2020 May 31.0 TT = JDT 2459000.5
T 2020 Nov. 26.23783 TT                                 Spoto
q   1.3889087            (2000.0)            P               Q
n   0.16564468     Peri.  167.92205     +0.67833098     -0.70311508
a   3.2836062      Node   238.92271     +0.65170003     +0.70981623
e   0.5770173      Incl.   14.42091     +0.33934370     +0.04230955
P   5.95
From 171 observations 2001 Aug. 1-2020 Sept. 1, mean residual 0".8.

* Finding Charts

* Magnitudes Graph

        m1 = 17.0 + 5 log d +  10.0 log r  [   ,-44]  (             - 2020 Oct. 13)
        m1 = -6.5 + 5 log d + 150   log r  [-44,  0]  (2020 Oct. 13 - 2020 Nov. 26)
        m1 = 10.0 + 5 log d +  35   log r  [  0,   ]  (2020 Nov. 26 -             )

---------------------------------------------------------------------

The orbital elements are published on M.P.E.C. 2020-S188.
The charts are made with StellaNavigator Ver.10 (AstroArts).
The magnitudes graphs are made with Comet for Windows.

---------------------------------------------------------------------

Copyright(C) Seiichi Yoshida (comet@aerith.net). All rights reserved.